Temp
9 10 9 9 9 9 9 11 10 11 11 11 11 11 12 11 11 11 10 9 8 8 8 8 8 8 8 8 8 7 7 6 6 6 6 6 6 6 7 7 7 7 6 6 6 6 7 6 6
9 9 9 9 9 8 10 10 11 11 10 11 11 11 11 11 11 11 10 9 8 8 8 8 8 7 7 7 7 7 7 6 6 6 6 6 6 6 6 6 7 7 6 6 6 6 6 6 6
9 9 9 8 9 9 10 10 11 11 11 10 10 11 11 11 11 10 9 9 8 8 8 7 7 7 7 7 7 7 6 5 5 6 6 5 6 5 5 6 6 6 6 6 6 5 6 6 6
8 8 8 9 10 10 10 10 10 10 10 10 10 10 11 11 11 10 9 8 8 8 7 7 7 7 7 7 7 6 5 5 5 5 5 5 4 5 5 5 5 5 5 6 5 5 5 6 6
7 8 8 9 11 11 11 10 10 10 10 10 9 10 10 10 10 10 9 9 8 8 7 7 7 7 7 6 6 6 6 5 5 4 4 5 3 4 4 4 4 4 4 4 5 5 5 5 5
6 7 7 9 11 11 11 10 9 10 10 10 9 10 10 10 10 10 9 9 8 8 7 7 7 7 7 6 6 6 6 6 6 5 4 5 5 4 3 4 4 3 3 3 4 5 5 5 5
6 7 7 8 11 11 11 9 9 10 10 10 10 10 10 10 10 9 9 8 8 8 8 8 7 7 7 6 6 6 6 6 6 6 5 5 5 4 4 3 3 2 3 2 4 4 5 4 5
6 6 6 7 10 11 10 9 8 9 10 9 9 9 10 10 9 9 9 8 8 8 8 7 7 7 7 7 6 5 5 5 5 5 5 5 5 4 4 4 4 2 2 1 3 4 4 4 4
6 5 5 7 9 10 9 9 8 8 9 9 9 9 9 9 9 9 9 9 8 8 8 7 7 7 7 7 7 6 5 5 5 4 4 4 4 4 4 3 3 3 3 2 2 4 4 4 4
6 6 5 7 8 9 9 9 8 8 8 8 8 9 8 9 9 9 9 9 8 8 8 7 7 7 7 7 7 6 5 4 5 5 4 4 4 3 3 3 3 3 2 2 2 3 3 4 4
6 6 6 7 8 8 8 8 9 8 8 8 8 8 8 8 9 9 9 9 8 8 8 7 7 7 7 7 7 6 5 5 5 4 4 4 4 3 3 2 2 3 3 1 2 2 3 3 4
6 6 6 7 7 7 7 7 8 8 8 8 8 8 8 8 8 9 9 8 8 7 8 7 7 7 7 7 7 6 5 5 5 4 4 4 3 3 2 2 2 2 2 2 2 3 3 3 3
6 6 6 6 7 6 6 7 7 8 8 8 8 8 8 8 8 8 8 9 8 8 8 7 7 7 7 7 6 6 5 5 5 4 4 3 4 3 2 1 2 2 2 2 1 2 3 3 3
5 4 4 5 5 5 5 7 6 8 8 8 8 8 8 8 8 8 8 8 8 8 8 7 7 7 7 7 6 6 6 5 5 5 4 3 3 2 2 2 2 2 2 1 2 2 2 3 3
4 4 3 4 4 5 6 7 7 8 8 8 8 8 8 8 8 8 8 8 8 8 8 8 7 7 7 6 6 6 6 6 5 5 4 4 3 2 1 2 2 2 1 1 2 1 2 2 3
3 3 3 4 5 5 5 7 6 7 7 7 7 7 7 8 8 8 8 8 8 8 8 7 7 7 6 6 6 6 6 6 5 5 5 4 3 2 3 2 1 2 1 0 2 1 1 2 2
2 2 2 3 4 4 5 6 6 6 7 7 7 7 7 8 8 8 8 8 8 8 8 7 7 7 6 6 6 6 6 6 5 5 5 4 3 3 2 2 1 1 1 2 1 1 0 2 2
1 2 2 2 3 4 4 5 5 5 6 6 6 7 7 8 8 8 8 8 8 8 8 8 7 7 6 6 6 6 6 5 5 4 4 4 3 3 2 2 2 1 2 1 1 1 2 2 2
1 1 1 2 2 2 3 4 4 4 5 5 6 6 7 7 8 8 8 8 9 8 8 8 7 7 6 6 6 6 6 5 5 5 4 3 2 2 2 2 2 1 2 2 1 1 1 1 1
0 0 1 1 1 2 2 3 3 4 4 5 6 6 6 7 7 8 8 8 9 9 8 8 8 7 6 6 6 6 6 6 5 5 4 4 1 2 2 2 2 1 1 1 1 1 1 0 1
-0 -0 0 0 1 1 1 2 3 4 5 5 6 6 6 7 7 8 8 9 9 9 9 8 8 7 6 6 6 6 6 6 5 5 4 4 2 2 1 3 2 2 1 1 0 0 0 1 1
-1 -0 -0 -0 -1 -1 -0 -0 2 4 5 4 6 6 7 7 7 8 9 9 9 9 9 8 8 7 6 6 6 6 6 6 5 5 4 4 3 2 2 3 2 2 2 1 1 1 1 0 1
-1 -1 -1 -1 -1 -1 -2 -1 2 2 3 5 6 6 7 7 7 7 9 9 9 9 9 8 8 7 7 6 6 6 6 6 5 5 5 4 4 3 3 3 3 2 2 1 2 1 0 1 0
-1 -1 -1 -1 -2 -3 -1 -1 -0 3 3 4 4 5 7 7 7 7 9 9 8 8 8 8 8 7 7 6 6 6 6 6 6 5 5 4 4 4 3 4 3 2 2 1 1 1 1 1 1
-1 -2 -4 -3 -2 -2 1 -1 -0 3 2 2 4 5 4 6 7 7 8 8 8 9 9 8 8 7 7 6 6 6 6 6 5 5 5 3 3 3 3 3 2 1 1 0 1 0 2 1 0
-2 -2 -3 -2 -1 -1 1 -0 2 1 2 3 4 5 5 5 7 7 8 8 8 8 8 9 8 8 7 6 6 6 6 6 6 6 5 3 2 3 3 3 2 1 1 1 1 1 1 0 0
-2 -3 -2 -3 -1 -2 1 1 2 2 2 3 3 4 5 6 7 7 8 8 9 9 9 9 8 7 7 6 6 6 6 6 5 6 5 5 4 3 3 2 3 1 1 2 1 1 1 1 -0
-2 -2 -3 -3 -2 -2 0 1 2 2 2 2 4 5 5 7 7 8 8 9 9 9 9 9 8 7 6 6 6 6 6 6 6 5 5 5 4 4 4 3 3 3 2 1 -0 -0 -0 -0 -0
-2 -3 -3 -3 -2 -1 -1 0 -0 0 0 1 1 3 5 7 8 8 8 9 10 9 9 8 7 7 6 6 6 6 6 6 5 5 5 5 5 4 4 4 4 3 2 1 -0 -1 -1 -0 -0
-2 -3 -3 -3 -2 -2 -2 -0 0 1 1 0 0 3 4 6 8 8 9 10 9 9 9 7 6 6 5 5 5 6 5 6 5 5 5 5 5 4 4 3 3 3 2 2 1 -0 -0 -0 -0
Height
3123 3123 3123 3124 3129 3123 3121 3123 3122 3123 3124 3125 3126 3128 3129 3129 3130 3132 3128 3128 3130 3131 3131 3131 3130 3129 3129 3130 3130 3131 3131 3132 3134 3135 3137 3139 3140 3141 3142 3143 3144 3144 3146 3147 3148 3150 3150 3152 3154
3120 3121 3121 3121 3122 3119 3119 3119 3119 3120 3122 3123 3125 3126 3127 3128 3127 3127 3127 3128 3129 3128 3128 3128 3128 3127 3127 3127 3128 3128 3129 3131 3132 3133 3134 3135 3137 3139 3140 3141 3142 3143 3144 3145 3147 3148 3150 3152 3153
3116 3118 3119 3118 3115 3113 3115 3116 3117 3117 3119 3121 3122 3124 3125 3126 3126 3126 3125 3126 3128 3127 3126 3126 3126 3126 3125 3125 3126 3126 3126 3128 3130 3132 3132 3133 3135 3136 3137 3138 3139 3140 3142 3142 3144 3146 3149 3151 3153
3113 3115 3116 3113 3109 3111 3113 3114 3115 3116 3117 3119 3120 3122 3123 3124 3124 3124 3123 3124 3125 3126 3125 3124 3124 3124 3124 3124 3124 3123 3124 3126 3127 3127 3128 3129 3131 3133 3134 3135 3137 3138 3139 3141 3142 3144 3147 3149 3151
3109 3110 3108 3107 3104 3106 3111 3113 3113 3114 3115 3116 3116 3118 3120 3121 3121 3121 3121 3122 3121 3122 3122 3122 3122 3121 3121 3121 3121 3121 3122 3122 3123 3124 3125 3127 3118 3123 3128 3132 3133 3135 3137 3139 3141 3142 3145 3147 3149
3104 3104 3102 3101 3100 3103 3107 3109 3110 3110 3112 3112 3113 3114 3117 3118 3118 3118 3119 3119 3119 3119 3119 3119 3119 3118 3118 3118 3118 3118 3118 3119 3119 3120 3122 3120 3124 3122 3120 3130 3127 3128 3131 3136 3137 3141 3142 3145 3148
3099 3099 3096 3098 3098 3099 3103 3106 3106 3105 3107 3107 3109 3111 3114 3116 3115 3115 3116 3116 3116 3117 3117 3117 3116 3115 3115 3114 3114 3114 3115 3115 3115 3117 3117 3118 3119 3121 3123 3124 3126 3130 3125 3129 3136 3138 3141 3143 3147
3095 3094 3090 3091 3094 3093 3098 3102 3102 3102 3101 3102 3105 3106 3110 3113 3112 3112 3113 3113 3114 3114 3114 3114 3113 3112 3111 3110 3109 3109 3110 3110 3111 3111 3112 3113 3115 3117 3118 3120 3120 3122 3121 3124 3132 3136 3138 3141 3145
3090 3087 3081 3086 3092 3092 3095 3098 3098 3098 3098 3098 3099 3102 3106 3108 3109 3109 3109 3111 3111 3111 3111 3110 3109 3108 3107 3106 3105 3104 3104 3105 3107 3107 3108 3109 3111 3113 3115 3116 3117 3118 3120 3121 3127 3133 3136 3140 3143
3081 3076 3076 3085 3090 3090 3092 3095 3096 3095 3094 3095 3097 3099 3102 3103 3104 3105 3106 3108 3108 3108 3107 3106 3106 3105 3104 3102 3100 3098 3098 3100 3102 3103 3104 3105 3107 3108 3110 3112 3113 3114 3116 3120 3121 3130 3133 3136 3140
3074 3066 3076 3081 3087 3088 3086 3089 3090 3089 3089 3093 3095 3095 3095 3097 3100 3101 3102 3103 3105 3105 3104 3103 3101 3101 3100 3098 3096 3093 3093 3095 3097 3098 3099 3101 3102 3104 3105 3107 3107 3110 3112 3117 3116 3125 3130 3134 3139
3067 3067 3072 3077 3082 3081 3081 3082 3079 3081 3085 3090 3090 3089 3090 3092 3096 3098 3099 3099 3099 3101 3101 3099 3097 3097 3096 3094 3092 3090 3091 3092 3093 3093 3094 3096 3097 3097 3098 3099 3101 3103 3107 3111 3115 3122 3128 3133 3137
3060 3064 3069 3072 3075 3074 3075 3072 3073 3071 3079 3084 3085 3084 3086 3087 3089 3093 3095 3095 3095 3096 3097 3096 3094 3094 3093 3091 3090 3089 3088 3088 3089 3089 3090 3090 3091 3092 3086 3087 3091 3097 3101 3108 3113 3119 3126 3131 3135
3058 3060 3062 3065 3067 3068 3067 3065 3067 3066 3074 3076 3078 3080 3082 3083 3085 3088 3089 3091 3091 3092 3092 3092 3091 3090 3089 3088 3088 3087 3085 3085 3086 3087 3086 3086 3087 3087 3081 3081 3084 3092 3097 3102 3110 3117 3123 3128 3133
3053 3054 3057 3057 3060 3061 3065 3052 3055 3062 3068 3070 3073 3075 3076 3078 3080 3082 3086 3087 3087 3088 3088 3088 3088 3086 3086 3085 3085 3084 3083 3083 3082 3082 3082 3083 3085 3085 3080 3078 3080 3087 3096 3100 3107 3114 3120 3125 3130
3050 3050 3049 3050 3056 3058 3063 3028 3051 3055 3060 3062 3064 3067 3069 3072 3074 3077 3080 3082 3083 3083 3085 3085 3084 3084 3082 3081 3081 3080 3079 3079 3079 3078 3078 3080 3082 3083 3082 3081 3080 3086 3094 3098 3104 3110 3117 3122 3127
3045 3043 3045 3047 3050 3053 3052 3037 3047 3051 3052 3054 3057 3060 3063 3065 3068 3071 3073 3075 3078 3079 3081 3082 3081 3081 3079 3078 3077 3077 3075 3074 3074 3074 3074 3075 3078 3080 3082 3083 3083 3085 3091 3097 3101 3107 3113 3119 3124
3039 3040 3042 3043 3047 3047 3042 3032 3039 3045 3045 3044 3048 3052 3056 3058 3061 3064 3066 3068 3071 3073 3075 3077 3078 3077 3076 3075 3074 3073 3071 3069 3069 3069 3069 3069 3073 3077 3079 3082 3086 3088 3090 3095 3100 3106 3111 3117 3122
3037 3038 3036 3039 3042 3040 3036 3027 3032 3037 3036 3036 3039 3042 3046 3050 3055 3055 3057 3060 3063 3066 3069 3072 3073 3074 3072 3071 3071 3069 3067 3065 3064 3064 3064 3064 3067 3071 3076 3079 3083 3087 3089 3093 3099 3103 3107 3111 3116
3032 3033 3032 3034 3036 3036 3031 3015 3022 3026 3026 3029 3030 3032 3036 3040 3044 3048 3049 3052 3056 3059 3062 3065 3068 3070 3069 3068 3067 3065 3063 3062 3060 3059 3060 3060 3063 3066 3071 3074 3079 3083 3085 3090 3096 3099 3102 3106 3111
3026 3028 3029 3029 3031 3029 3027 3007 3008 3016 3017 3018 3019 3021 3025 3030 3034 3039 3041 3045 3048 3052 3056 3059 3063 3065 3065 3064 3063 3062 3060 3059 3057 3056 3056 3057 3058 3063 3064 3069 3075 3078 3082 3087 3091 3093 3098 3102 3106
3022 3024 3024 3025 3028 3026 3026 3006 3001 3005 3003 3007 3010 3013 3016 3020 3026 3030 3033 3037 3041 3046 3050 3053 3057 3060 3061 3060 3059 3058 3057 3056 3054 3053 3052 3053 3054 3058 3061 3063 3069 3075 3080 3079 3083 3090 3092 3095 3100
3019 3020 3020 3023 3023 3022 3021 3025 2990 3000 2996 2999 3000 2999 3004 3009 3016 3021 3026 3030 3035 3038 3044 3047 3051 3055 3056 3056 3056 3054 3054 3053 3051 3050 3049 3049 3051 3053 3056 3060 3064 3069 3073 3075 3080 3083 3087 3091 3093
3015 3016 3017 3018 3018 3016 3014 3018 2989 2994 2990 2991 2991 2991 2993 2998 3008 3013 3018 3022 3027 3031 3036 3041 3045 3049 3052 3052 3052 3051 3051 3050 3048 3047 3046 3045 3047 3049 3052 3056 3059 3063 3065 3070 3073 3078 3081 3084 3087
3012 3013 3016 3018 3017 3011 3008 3009 2994 2991 2991 2990 2985 2984 2987 2992 3001 3007 3010 3015 3021 3024 3028 3033 3039 3043 3047 3048 3048 3048 3048 3047 3046 3044 3043 3041 3043 3046 3050 3051 3053 3056 3061 3064 3068 3072 3074 3076 3081
3009 3011 3014 3014 3012 3009 3007 3001 2992 2990 2987 2984 2981 2979 2979 2983 2990 2998 3002 3008 3013 3018 3022 3026 3032 3038 3042 3044 3045 3045 3045 3045 3044 3042 3040 3039 3040 3042 3046 3048 3049 3052 3055 3059 3062 3062 3067 3069 3075
3007 3009 3013 3014 3010 3011 3001 2994 2991 2988 2985 2981 2978 2976 2975 2976 2981 2990 2996 3002 3006 3011 3015 3020 3026 3033 3037 3040 3041 3042 3042 3043 3043 3041 3039 3038 3039 3042 3044 3047 3049 3050 3054 3056 3057 3060 3062 3068 3075
3006 3009 3010 3012 3008 3003 2992 2990 2985 2984 2981 2978 2974 2970 2969 2971 2977 2984 2991 2996 3000 3005 3008 3015 3021 3028 3033 3036 3037 3038 3039 3040 3042 3041 3040 3038 3039 3041 3043 3045 3046 3048 3050 3052 3055 3057 3061 3066 3070
3006 3007 3009 3009 3007 2999 2994 2987 2985 2983 2981 2978 2973 2969 2965 2966 2973 2978 2984 2991 2995 2999 3004 3011 3017 3023 3028 3031 3033 3035 3036 3038 3039 3040 3040 3040 3039 3041 3042 3044 3046 3047 3048 3049 3052 3056 3059 3063 3066
3004 3005 3007 3006 3005 3000 2997 2988 2985 2984 2983 2977 2972 2969 2967 2964 2968 2972 2977 2984 2991 2994 3000 3006 3012 3018 3023 3026 3028 3031 3033 3034 3036 3037 3038 3038 3039 3040 3041 3043 3044 3046 3047 3049 3050 3053 3056 3058 3060
Wind_Speed
16 14 14 14 9 8 8 3 7 8 7 10 7 8 8 10 14 14 15 5 4 2 6 10 13 14 11 9 11 13 13 15 16 18 19 17 17 16 15 16 16 14 13 14 15 15 15 15 15
17 15 16 15 11 13 8 5 8 13 12 11 10 10 11 12 17 16 14 9 9 8 12 13 10 7 6 8 10 13 15 17 19 19 20 22 19 17 16 15 15 16 16 15 15 16 16 17 17
18 17 17 12 19 25 7 9 8 11 15 13 12 10 11 14 16 12 10 7 8 14 15 11 8 9 7 7 10 15 16 19 20 22 23 22 21 20 18 17 17 16 17 18 17 18 18 19 19
19 20 21 21 25 13 10 10 10 10 10 12 10 10 12 14 15 13 8 8 11 13 11 10 10 11 10 9 10 13 17 20 21 25 25 25 24 25 21 20 20 20 20 18 19 18 19 20 20
22 24 26 25 31 28 18 14 9 10 14 16 16 17 17 16 14 13 10 10 11 13 10 10 11 12 12 12 12 14 15 19 25 27 26 28 27 25 23 22 22 23 20 19 18 20 20 21 20
25 27 22 30 32 27 20 15 14 17 16 21 23 18 16 19 16 13 11 10 10 13 9 10 13 15 15 14 16 16 18 20 23 27 27 29 29 33 21 29 31 26 24 19 19 23 22 20 21
28 30 33 33 31 29 21 15 12 19 17 16 23 21 17 15 15 13 12 10 10 11 10 14 18 17 16 17 18 19 20 23 25 25 27 29 30 29 28 23 27 32 24 21 24 24 23 22 20
29 32 37 37 32 35 27 17 12 17 12 12 17 22 17 13 14 14 13 10 11 13 15 15 15 17 18 18 20 22 23 24 26 26 27 27 27 28 31 30 31 33 15 28 24 25 23 23 22
31 36 42 40 33 32 15 8 19 14 16 17 21 22 18 16 16 16 14 13 14 16 17 16 15 16 19 20 22 25 25 25 26 26 27 27 27 28 30 28 30 25 19 32 31 28 26 23 21
34 43 46 39 33 34 30 19 19 16 14 18 18 16 21 20 19 16 15 15 15 16 15 16 14 16 19 19 22 24 25 25 25 27 28 28 29 29 29 27 27 26 20 27 33 29 28 25 24
38 48 42 38 32 34 36 30 27 27 22 18 19 19 20 21 21 19 20 17 15 16 13 15 16 18 19 19 20 19 18 20 23 25 26 26 28 30 32 30 29 27 32 33 36 34 30 26 23
42 44 40 35 33 37 37 33 36 35 29 19 19 17 16 11 20 26 21 17 14 16 15 16 17 20 20 18 17 16 15 15 17 21 24 24 24 24 30 34 31 28 35 38 38 35 26 25 23
43 42 38 36 33 36 36 38 37 39 31 27 23 21 19 19 15 20 20 22 18 19 17 16 17 21 20 17 15 14 14 13 17 22 23 23 22 23 29 29 33 35 37 39 33 34 29 26 24
40 35 36 38 37 38 39 39 36 39 32 32 32 27 22 19 15 19 20 21 23 17 16 16 18 21 20 17 15 15 12 13 17 21 24 22 20 21 15 18 35 38 33 43 38 32 27 25 26
37 38 36 39 33 35 32 47 44 37 32 33 37 33 26 21 18 19 20 19 18 16 17 20 18 20 18 17 17 17 15 14 16 19 24 22 20 17 3 13 25 43 28 33 31 29 27 25 26
25 30 33 33 33 35 28 60 25 20 24 35 37 36 31 23 22 19 22 23 20 19 18 13 17 18 17 17 18 20 18 18 18 20 23 21 19 15 7 9 21 29 38 33 34 31 28 26 25
26 28 21 22 24 24 29 47 39 39 37 38 36 37 36 31 27 26 27 25 23 22 19 16 17 18 18 17 19 19 17 21 20 21 24 24 20 17 15 10 10 15 19 33 32 31 29 27 26
23 26 26 27 28 29 33 44 40 37 39 42 39 37 37 36 34 30 31 32 26 26 23 19 21 19 18 17 19 18 18 20 20 17 22 28 24 22 21 21 18 20 19 28 31 28 25 24 24
32 27 27 25 18 23 32 44 40 37 40 44 44 41 40 37 35 35 34 34 31 29 25 21 21 19 17 16 16 17 17 18 19 18 18 27 27 27 25 25 31 26 23 22 26 32 32 30 30
29 28 29 29 30 31 37 52 47 44 45 45 44 43 42 39 40 36 34 34 31 26 25 25 20 20 17 14 16 16 16 16 17 16 15 20 25 29 25 28 32 33 32 26 29 29 27 30 32
28 26 25 26 26 30 35 55 53 48 48 48 47 47 43 39 36 34 32 33 33 26 25 24 21 19 18 14 15 16 14 14 14 14 15 15 26 26 27 31 27 34 36 26 30 39 34 34 35
23 20 19 19 17 11 12 22 45 43 45 44 45 48 43 39 34 30 29 33 28 23 25 23 22 21 19 15 14 16 14 13 13 14 13 14 18 34 34 32 32 34 39 34 32 36 42 36 39
11 14 16 17 18 20 16 12 30 20 36 39 34 31 39 40 37 27 30 28 24 23 21 22 21 21 18 15 14 15 12 12 12 14 13 15 18 23 34 39 36 33 35 41 36 35 40 43 40
9 10 13 15 10 7 18 21 25 17 18 16 18 16 25 31 33 23 31 29 27 23 25 27 23 21 18 15 13 15 12 10 10 13 14 14 13 19 24 29 34 41 36 36 37 34 35 39 42
9 8 5 4 3 5 7 15 33 32 24 29 23 17 11 17 32 26 31 29 25 23 22 24 28 22 19 15 13 14 12 9 9 12 14 14 12 14 19 22 27 31 38 38 36 38 48 35 44
1 4 5 4 3 3 5 9 8 6 12 18 26 19 19 20 33 34 32 31 28 26 23 25 25 23 19 15 13 12 10 8 8 11 13 10 11 11 11 16 19 23 23 31 24 40 41 44 44
2 3 8 7 22 7 9 15 18 19 12 13 17 18 20 21 30 35 36 30 32 27 24 26 25 25 18 17 14 12 10 7 6 8 9 7 7 12 15 16 12 17 25 21 15 24 35 37 34
3 4 2 8 3 4 6 9 9 9 4 6 9 16 21 26 30 36 40 34 32 25 20 24 23 24 18 16 15 13 12 9 5 5 6 4 6 10 13 13 12 10 11 14 14 16 21 24 16
5 5 3 6 7 3 3 3 5 5 9 12 17 10 11 26 32 25 28 27 30 25 25 26 25 24 22 19 18 14 13 11 8 4 2 1 3 7 9 10 11 13 13 14 13 15 18 21 23
6 7 10 5 5 8 9 7 12 10 7 10 19 16 6 5 17 17 19 24 30 28 26 28 24 21 22 20 19 16 14 14 12 8 6 4 4 5 7 8 9 11 13 13 15 17 24 29 32
Wind_Direction
247 248 254 262 258 237 245 221 221 208 189 182 185 209 245 265 298 295 301 233 152 243 305 320 319 311 295 282 279 272 252 240 235 238 243 242 238 237 235 242 249 250 239 231 232 226 216 206 202
245 246 249 253 246 238 254 242 246 214 210 205 215 231 256 288 322 320 295 257 279 301 323 329 331 326 301 295 267 265 256 243 238 241 242 245 243 238 237 242 247 253 249 238 231 224 216 213 209
239 241 244 243 249 246 234 206 180 195 220 218 215 234 265 301 317 322 292 284 293 304 320 329 329 335 327 307 270 260 250 241 240 248 244 246 258 243 235 235 240 251 253 246 234 224 217 215 217
235 237 237 241 249 244 214 201 190 187 193 209 232 252 272 298 307 324 305 288 301 318 324 321 329 330 318 304 286 263 249 240 241 247 246 238 241 234 227 229 230 234 244 245 235 229 219 219 225
233 235 234 241 252 254 244 208 250 231 228 221 235 243 259 294 300 323 312 301 306 319 320 320 319 316 309 294 281 269 258 242 244 238 244 257 240 213 216 227 229 230 231 236 236 225 220 219 220
231 232 231 236 251 255 253 243 246 234 238 240 231 244 254 288 295 315 312 290 298 323 340 338 330 317 305 291 277 266 257 254 250 255 250 260 267 269 215 267 226 216 210 228 224 232 221 220 216
233 238 239 243 254 260 255 258 257 238 252 251 233 239 250 275 292 301 298 292 279 314 321 324 325 320 307 291 276 267 261 257 257 255 254 258 263 266 256 256 252 258 217 222 225 220 218 214 209
236 239 243 242 247 259 259 252 250 249 234 209 222 235 257 276 283 287 287 289 287 302 315 314 315 311 309 297 278 267 259 254 256 252 255 258 262 261 262 265 274 245 268 210 212 215 201 204 193
238 239 243 243 245 246 260 258 220 229 208 204 212 235 250 275 280 284 280 285 289 290 313 318 317 310 308 300 286 269 256 252 249 249 253 256 259 259 261 270 267 265 264 218 200 208 202 200 192
236 241 246 249 252 259 262 254 218 228 219 212 215 216 239 268 272 278 280 280 280 284 318 312 309 304 300 295 292 274 252 249 253 255 254 255 255 254 250 255 257 253 245 228 193 203 203 202 198
245 248 253 257 260 262 264 263 247 245 230 220 223 230 237 253 261 273 282 279 274 275 308 311 305 299 298 298 303 284 252 248 255 253 251 252 255 252 252 246 251 256 233 233 196 201 204 203 199
248 252 254 259 259 263 265 267 253 250 245 222 225 231 234 246 268 264 268 279 268 274 291 301 298 296 297 299 305 295 256 251 251 249 250 256 260 256 255 246 250 231 227 201 200 193 205 201 196
250 254 257 260 260 262 265 261 261 253 246 230 228 234 242 249 256 267 276 281 272 283 288 297 294 294 296 296 303 305 266 257 248 251 256 257 261 268 284 254 235 238 222 198 208 200 204 199 200
247 260 261 258 257 261 264 262 262 255 248 235 232 237 244 251 252 261 273 282 286 286 290 295 289 287 294 294 296 298 293 273 265 264 262 263 268 276 295 251 228 220 211 211 198 196 209 205 200
252 255 256 255 257 255 263 263 258 264 257 249 231 239 246 249 249 258 271 278 293 284 287 301 280 280 291 297 293 290 288 280 269 264 262 263 262 272 302 236 222 214 193 185 192 202 213 207 201
252 256 259 264 256 256 252 256 260 255 257 253 248 242 246 248 252 258 263 271 275 278 289 286 277 274 286 297 298 293 285 280 269 266 263 255 250 252 257 259 183 192 200 202 199 208 209 211 206
245 251 258 267 260 253 248 264 268 266 265 261 257 253 250 250 248 247 250 257 263 271 276 272 281 266 277 287 295 292 287 288 284 271 262 257 239 236 233 218 216 179 191 212 207 212 215 217 210
242 247 257 267 270 263 262 264 268 264 264 263 263 260 256 253 251 250 249 247 247 260 265 261 273 272 273 283 291 290 292 292 289 273 262 254 239 222 220 217 207 185 193 204 203 211 214 221 222
254 257 265 266 268 269 270 271 267 267 264 264 263 263 261 255 253 249 255 243 234 246 253 253 260 273 272 284 292 291 297 296 292 282 263 248 231 229 216 216 217 203 203 209 210 213 219 219 221
252 259 263 271 270 271 277 274 272 270 267 264 265 262 261 262 256 258 248 238 236 238 249 248 251 264 271 281 295 297 299 300 293 282 272 253 226 222 223 222 216 221 208 220 210 222 219 216 224
248 251 260 272 282 275 283 279 277 271 269 264 261 260 259 256 255 251 244 232 231 238 231 241 246 253 264 275 291 296 300 300 293 282 279 258 236 211 223 221 228 232 219 236 218 221 221 225 223
247 258 265 273 287 289 292 292 282 281 275 271 267 261 255 251 249 251 232 231 223 223 228 235 242 244 263 272 288 295 299 302 298 289 276 249 238 221 222 236 228 222 224 228 228 237 231 233 234
248 262 276 280 286 290 274 269 272 282 283 283 286 265 255 250 241 244 227 215 222 224 235 236 242 238 255 266 280 291 294 302 305 296 281 261 245 231 227 223 232 229 228 225 227 229 251 249 235
248 269 285 286 282 267 261 228 293 307 306 316 315 295 256 240 226 235 224 221 223 226 236 240 245 236 251 260 273 286 288 299 311 303 287 273 251 239 231 232 232 234 230 231 241 242 235 240 235
262 280 0 10 193 246 251 218 253 293 297 299 296 290 259 223 220 229 218 223 230 231 231 232 237 234 243 252 263 279 282 297 317 313 301 283 252 239 242 248 240 228 240 233 234 241 234 235 241
8 189 167 248 220 294 298 230 282 308 317 286 284 278 238 207 210 222 221 229 233 237 245 231 226 228 233 240 250 265 269 287 317 324 316 290 244 243 249 248 241 229 233 223 246 245 244 246 243
120 202 251 270 283 256 237 255 261 280 279 280 266 255 232 210 213 221 221 230 236 238 248 217 213 216 224 231 238 255 250 267 303 334 335 315 226 223 218 222 232 220 222 231 238 227 245 237 242
241 328 253 222 266 260 246 250 245 292 294 355 282 267 259 219 216 219 226 236 235 237 203 201 194 206 218 234 229 241 235 242 270 323 350 324 248 234 229 232 217 224 227 226 222 239 227 226 243
227 262 293 283 266 283 301 291 318 316 24 25 23 7 286 229 211 227 222 225 231 200 198 196 192 205 219 232 223 229 229 229 231 257 310 337 214 241 253 250 254 247 239 241 232 222 234 236 241
241 272 277 241 323 283 302 272 336 322 307 34 31 26 17 192 205 207 221 220 209 194 197 187 192 208 219 225 218 219 224 225 228 227 240 249 216 208 225 232 243 252 251 247 240 231 236 244 247